Wind_Speed
13 26 34 36 38 40 40 40 37 34 32 31 28 26 25 22 20 18 17 18 18 17 16 17 17 17 19 21 22 24 24 24 24 22 21 17 13 12 12 11 12 13 13
9 10 23 32 38 39 40 40 38 37 35 35 33 31 27 23 21 20 18 18 19 18 17 18 19 19 20 21 23 26 25 24 22 9 10 3 4 9 8 8 9 10 9
11 12 15 25 30 34 38 39 39 38 36 35 30 24 24 20 21 21 21 20 19 19 18 18 19 20 21 22 22 22 23 17 15 17 5 3 3 6 6 7 8 8 8
5 6 10 14 25 27 34 36 38 37 36 34 32 31 28 23 22 28 24 21 20 20 19 19 19 19 20 21 21 20 19 19 18 11 6 5 11 3 2 5 6 6 6
6 7 7 14 21 30 34 35 36 35 36 34 33 32 28 27 20 25 23 22 21 20 20 20 20 20 19 20 20 20 18 19 20 13 12 10 9 9 4 3 5 5 6
8 7 10 17 19 24 29 31 33 32 34 32 31 33 32 27 21 26 26 25 23 22 21 21 20 20 20 20 19 19 18 19 17 15 14 13 6 6 5 3 4 8 6
12 10 8 6 12 18 22 24 27 26 29 29 28 30 29 26 27 30 31 29 27 25 25 23 23 22 21 20 19 19 19 18 18 17 15 13 11 14 12 11 6 4 6
14 17 18 17 4 11 16 17 20 23 26 27 26 25 24 24 27 29 30 31 30 28 25 24 22 21 20 20 19 19 18 18 18 17 15 15 13 14 15 11 13 2 3
17 20 23 30 32 12 10 10 13 18 22 24 24 22 21 22 26 29 27 28 27 25 24 24 23 22 21 20 19 19 19 18 17 16 16 15 13 13 13 13 16 10 4
20 18 20 28 30 32 34 30 10 10 16 20 22 21 16 14 21 23 24 24 25 26 25 25 25 23 22 21 20 19 17 18 17 16 16 15 14 13 12 12 13 13 7
19 17 20 25 26 30 33 33 33 25 18 10 5 13 16 16 14 19 21 23 24 25 25 25 24 23 22 21 20 19 19 17 16 16 16 16 15 14 13 13 12 12 11
17 16 23 27 30 29 30 30 31 29 25 17 13 9 6 4 5 12 16 19 23 23 23 23 23 22 22 21 21 21 19 20 17 16 17 16 15 14 14 13 13 12 12
17 15 22 25 27 29 29 28 29 28 23 20 18 16 13 8 5 5 9 15 19 20 20 20 21 21 19 18 17 17 16 15 16 15 15 16 15 15 15 14 12 10 10
14 14 15 20 23 25 27 28 28 28 25 21 18 15 11 8 6 5 3 5 9 12 15 19 20 21 20 20 19 17 17 18 20 20 19 18 17 15 14 14 12 11 11
15 14 13 17 20 22 24 26 27 27 23 22 21 19 16 13 7 3 3 6 10 12 15 18 20 20 20 20 20 20 19 18 16 16 16 16 15 13 12 12 13 12 12
12 12 13 16 18 20 21 22 24 23 20 19 19 18 17 16 14 13 11 9 6 4 7 9 10 12 13 12 13 14 14 13 12 11 11 11 10 11 13 13 12 14 13
10 11 11 17 16 19 22 21 19 18 18 17 16 16 15 15 15 13 11 11 9 7 6 4 7 8 7 5 9 13 12 12 11 11 10 11 11 11 13 14 13 14 13
11 12 14 17 18 19 19 19 17 16 14 14 15 16 14 13 13 12 11 11 10 9 8 8 6 4 5 6 6 5 4 6 8 8 10 11 13 13 12 12 15 17 16
16 18 21 21 23 21 21 19 18 17 16 14 13 13 13 15 14 13 13 13 13 12 11 9 10 11 12 9 8 8 10 11 12 13 14 14 14 15 14 15 16 17 18
20 21 21 22 21 21 21 18 18 18 18 15 15 14 11 11 12 13 14 14 13 13 11 10 10 10 11 9 10 12 11 10 10 12 15 14 13 14 16 18 19 19 19
24 23 22 21 20 21 21 20 17 16 15 14 14 14 15 15 14 13 13 13 13 12 13 15 15 14 13 15 13 13 13 12 12 11 10 11 11 15 17 18 20 21 20
21 21 20 21 23 22 18 20 18 17 18 19 16 16 17 17 15 13 14 14 15 16 16 17 19 17 17 14 14 14 16 16 16 15 13 13 12 13 15 17 17 18 18
20 21 21 23 24 17 20 18 19 21 20 20 19 19 17 16 16 16 16 15 13 15 16 13 15 14 11 12 12 13 15 15 16 15 14 16 16 17 17 17 16 17 16
21 22 22 19 20 21 18 22 24 25 24 22 21 20 18 18 17 15 15 15 15 15 15 14 13 13 12 12 13 14 16 15 16 13 16 16 16 18 17 17 16 18 19
21 19 18 20 19 22 24 24 22 23 22 21 20 20 19 19 19 17 17 18 19 18 19 20 21 19 18 20 17 16 17 19 19 17 18 16 17 16 17 17 17 16 18
16 21 21 21 24 25 24 26 24 22 22 21 18 19 20 20 19 19 20 20 22 23 24 25 24 22 24 23 21 21 21 21 21 21 22 20 16 14 12 14 15 16 16
Wind_Direction
216 200 201 198 192 189 189 190 188 189 185 183 178 177 175 173 179 187 184 178 176 176 172 165 161 160 161 154 146 144 140 137 135 117 108 102 102 100 99 100 96 91 86
194 190 181 182 182 180 184 184 188 187 189 188 187 184 179 177 181 180 185 184 180 178 175 173 171 167 161 159 161 158 146 146 158 153 128 145 108 96 102 105 104 99 98
200 184 175 177 171 173 179 181 187 190 192 193 187 184 178 176 176 183 190 189 187 184 183 178 177 175 176 170 170 172 174 164 176 176 174 139 171 137 124 116 113 110 105
134 161 159 159 169 172 178 182 189 192 194 193 190 188 180 176 195 195 194 192 191 190 189 186 183 181 180 179 178 179 183 180 174 159 170 150 140 153 147 148 132 115 108
100 126 122 148 166 178 180 185 190 192 193 194 198 194 190 194 196 196 193 195 194 196 194 192 189 189 186 185 184 184 186 187 178 180 158 145 130 130 141 160 162 141 124
61 97 124 151 163 176 181 186 190 192 194 195 198 200 200 197 191 193 194 196 196 195 195 195 195 194 192 189 186 184 186 183 183 181 180 169 165 168 144 123 139 155 159
37 37 44 93 150 173 179 184 190 188 194 196 201 205 208 209 210 201 199 194 195 196 196 197 196 197 195 192 189 185 185 183 181 177 171 170 166 161 146 131 141 146 161
36 34 26 18 78 171 182 184 193 193 194 200 203 210 217 219 218 211 207 204 205 204 198 198 199 199 196 193 190 187 184 181 180 174 172 168 167 172 174 161 153 120 144
38 34 25 22 23 18 178 182 191 199 199 205 207 211 220 225 222 213 215 214 213 208 203 201 200 199 198 197 192 189 185 183 179 176 174 172 168 171 172 174 180 152 158
29 26 28 24 23 22 23 33 14 207 206 211 213 217 217 213 211 212 211 214 213 210 203 200 202 200 197 194 193 188 186 185 179 176 176 176 173 176 174 175 180 186 157
24 20 20 24 25 26 23 22 22 29 43 52 190 208 213 217 214 214 216 214 211 208 206 203 200 200 195 191 190 187 183 184 184 180 180 182 180 177 177 176 177 178 184
22 21 21 23 23 22 23 22 21 18 24 44 69 80 92 122 162 202 214 208 207 207 206 202 199 195 190 188 183 182 183 179 177 181 181 181 184 179 182 185 186 187 188
24 22 22 21 17 16 17 18 19 20 19 16 32 42 45 48 66 134 169 179 183 186 189 191 190 183 181 181 180 185 188 186 192 200 201 194 192 190 190 192 194 195 195
19 21 25 22 18 17 15 14 16 22 28 35 36 35 31 27 35 63 115 166 176 184 185 191 191 193 199 207 213 211 210 211 209 208 204 201 196 190 198 204 201 207 209
11 14 16 16 15 14 12 13 18 21 27 32 36 33 38 49 56 34 271 242 223 214 211 211 216 220 221 218 215 214 210 209 209 209 211 213 210 206 208 210 211 207 208
5 359 3 9 9 8 5 7 10 16 17 23 26 25 24 26 33 40 51 75 92 152 197 206 215 207 204 211 212 210 205 204 207 217 223 222 220 229 233 227 225 226 215
355 351 353 352 352 359 359 0 3 6 12 11 15 18 17 14 12 11 13 18 20 20 29 82 136 164 183 194 218 213 211 206 209 210 219 226 226 227 240 246 244 240 234
344 345 336 344 340 343 345 351 353 357 5 4 4 358 5 4 359 0 359 359 352 352 343 336 328 304 257 228 243 248 248 224 223 222 226 239 243 234 231 240 243 244 244
329 326 328 328 335 336 338 336 343 346 352 352 349 352 355 347 342 346 339 338 335 331 323 315 309 301 295 290 279 269 270 266 258 250 246 244 245 244 239 246 249 254 257
324 325 331 331 331 331 331 328 328 336 338 330 332 333 326 314 315 315 310 306 300 298 292 286 278 276 276 269 263 262 260 260 262 261 251 246 250 254 248 249 249 251 257
327 332 329 325 327 327 329 325 319 319 327 327 322 314 311 307 310 305 299 299 298 290 283 280 275 272 270 272 266 258 258 256 260 257 260 260 251 250 251 253 256 256 263
326 327 323 323 328 326 327 326 322 329 322 317 313 311 309 308 302 297 292 293 294 289 283 285 285 280 277 270 269 266 259 255 254 253 253 251 252 256 257 258 260 261 260
317 320 317 319 323 330 325 321 324 327 324 318 311 307 304 300 299 297 291 286 282 279 283 276 275 277 276 276 268 268 263 261 255 253 253 258 260 257 257 256 260 262 266
314 315 314 314 318 321 326 321 320 318 318 313 308 304 299 299 300 298 291 287 281 273 271 272 270 275 273 268 266 270 266 265 267 264 258 260 265 264 266 265 263 266 269
310 315 321 314 317 321 318 316 315 315 312 310 307 304 300 299 297 293 290 282 280 276 269 262 259 255 252 256 260 261 259 257 259 259 261 256 250 258 266 270 274 278 277
321 319 316 314 312 312 310 310 312 310 307 304 303 301 301 298 294 293 295 289 284 281 279 278 272 265 257 259 259 258 260 261 256 242 240 243 234 226 230 251 262 268 269
Height
709 713 718 724 730 736 742 748 755 762 767 772 775 779 781 786 789 792 794 796 798 800 802 804 806 808 809 811 814 816 819 823 825 827 833 835 837 837 837 837 837 837 837
708 709 713 718 723 729 736 743 750 757 763 767 771 775 779 784 787 790 792 795 797 798 800 802 804 807 808 810 812 814 817 821 824 825 829 837 840 839 839 838 838 838 840
701 703 708 713 720 726 732 739 746 753 759 765 770 775 779 783 786 787 789 792 795 797 799 801 803 805 807 808 810 812 814 816 820 821 822 830 832 836 840 840 839 840 840
697 701 706 713 718 725 732 738 744 750 757 762 767 769 772 776 779 782 786 789 792 795 797 799 801 803 805 807 809 810 811 813 815 818 818 817 819 829 839 840 840 840 841
703 707 711 715 720 725 731 737 743 748 753 758 763 767 771 774 777 782 785 787 790 792 795 797 799 801 802 804 806 807 808 810 811 813 815 816 817 819 825 835 838 840 840
711 713 715 719 724 730 734 738 742 747 752 757 762 765 769 772 775 779 781 784 787 789 792 795 797 798 800 801 803 804 806 807 809 810 811 812 814 816 818 826 833 836 840
725 727 729 729 731 735 738 743 746 749 754 758 762 765 769 771 772 774 776 779 782 785 788 791 793 795 797 799 800 802 803 804 806 807 808 810 811 813 816 819 827 832 837
743 742 743 741 739 741 743 746 749 751 755 758 762 765 768 770 772 773 774 776 778 781 785 788 791 793 795 797 798 800 801 802 804 805 807 808 809 811 813 815 819 830 833
755 756 755 754 753 750 748 750 751 753 756 758 761 763 766 768 769 771 774 776 778 781 783 785 788 790 793 796 797 798 799 801 802 803 805 807 809 810 811 814 816 818 829
771 771 769 768 765 763 759 755 755 755 756 757 759 762 764 766 768 770 772 774 776 778 779 782 784 787 790 792 795 797 799 800 801 802 804 806 807 809 810 812 814 816 819
787 785 781 778 776 772 769 767 763 761 759 759 759 761 763 764 767 769 771 772 774 776 777 780 783 785 788 790 792 794 797 799 802 802 804 805 806 807 809 811 813 816 818
802 798 793 787 783 781 778 777 774 771 768 765 762 762 764 765 766 767 769 771 773 775 777 779 781 783 786 788 790 792 794 796 801 803 803 805 807 806 807 810 812 814 816
815 809 803 798 794 790 787 785 783 780 775 773 769 768 768 769 769 769 769 770 772 773 776 778 780 782 784 786 788 790 794 794 798 803 805 804 805 806 806 808 810 812 815
822 818 811 808 806 802 798 794 791 787 782 779 777 775 775 775 776 775 776 775 775 776 778 779 781 782 784 785 787 789 791 794 795 797 800 802 802 803 805 806 807 809 811
826 821 817 814 811 807 803 800 796 792 788 786 783 782 781 779 777 777 778 778 778 778 780 781 781 781 782 783 785 786 787 790 792 793 796 798 799 800 802 804 805 806 808
829 828 822 817 814 811 808 804 802 798 795 791 790 787 786 784 782 781 780 778 779 779 778 778 780 781 780 782 783 783 785 787 789 792 794 796 796 799 803 803 804 804 805
833 830 825 822 818 815 812 808 804 802 798 798 793 790 789 788 788 786 784 782 782 781 782 780 778 780 780 780 781 782 783 784 786 787 791 794 794 795 799 802 802 803 802
836 831 829 825 822 818 816 812 808 805 799 797 796 796 790 789 790 788 787 784 785 783 783 782 782 780 781 779 780 781 782 783 784 785 787 789 792 792 793 797 801 801 799
835 832 829 825 821 818 816 812 808 804 800 798 796 793 791 792 792 788 788 786 785 784 783 783 782 782 781 780 780 781 782 782 782 783 784 785 788 788 790 793 794 797 796
835 830 825 823 821 818 816 811 806 802 800 798 795 794 793 793 790 787 788 787 785 784 784 782 782 781 781 780 780 782 781 781 781 779 780 781 782 784 787 787 788 790 792
831 828 825 823 820 817 813 809 805 803 802 799 796 795 793 792 786 784 784 784 783 781 781 781 780 778 776 776 777 778 778 778 778 776 776 776 776 779 781 782 783 784 785
829 827 823 820 817 814 810 807 804 801 799 797 794 792 790 789 785 782 780 780 779 779 776 776 777 774 772 771 772 773 774 773 774 773 771 773 773 775 776 777 777 779 780
828 825 821 817 813 811 809 805 802 800 797 794 791 788 787 785 782 779 778 776 774 773 775 772 773 771 767 767 768 767 769 769 767 769 767 769 770 770 769 771 771 773 774
825 821 817 813 810 807 805 802 799 796 793 790 787 785 783 780 778 776 775 773 771 770 770 769 767 767 764 764 764 763 763 764 766 761 763 761 763 765 763 765 766 768 769
822 819 815 811 808 805 801 798 795 793 789 787 784 781 778 776 773 772 771 769 767 766 764 763 763 760 759 758 758 757 757 759 758 757 758 756 757 757 758 760 762 763 764
819 816 812 808 805 801 797 794 791 788 785 782 779 776 774 771 769 767 765 764 763 760 758 756 754 751 751 751 750 750 750 750 750 750 751 751 750 751 754 756 757 759 761